Voltar ao catálogo

FENGYUN 1C DEB

LostSSO
NORAD 36714·DEBRIS·🇨🇳 China

Lançado May 10, 1999 de Taiyuan Satellite Launch Center

Loading…

Próximas Passagens (próximas 24 horas)

TLE

ObsoletoSource: Space-Track

Época: Sep 22, 2022, 23:59 UTC

1 36714U 99025EAL 22265.99986628  .00001741  00000-0  87008-3 0  9999
2 36714  98.7675 331.0240 0034689 221.5183 138.3356 14.17789316723693

Acompanhe FENGYUN 1C DEB em tempo real com AllMySat

Download on the App Store